Content
SEND FEEDBACK

Daily
Averages
Monthly
Summary
Germany

AUGSBURG, GERMANY


Home > Europe > Germany
Elevation: 1519 feet     Latitude: 48 26N     Longitude: 010 56E

WEATHER
 
SELECT A DAY
Number of Records: 279,844;   Date Range: 7/1/96 - 12/17/14
 
SHARE

PRINT THIS DATA

[ ← Previous Day ]
WEATHER ALMANAC - JANUARY 31, 2013
[ Next Day → ]
[ °C ]   °F
Weather ElementAverageHighLow
Temperature44.5 °F48.2 °F (12:50 pm)40 °F (8:00 am)
Dewpoint34.4 °F41 °F (10:50 pm)30.2 °F (4:20 pm)
Humidity66.2 %93 % (10:50 pm)43 % (7:00 pm)
Barometer30.07 in30.20 in (9:00 am)29.95 in (4:20 pm)
Wind Speed17.5 mph25.3 mph (4:50 pm)
Wind Gust40.3 mph (4:50 pm)
Weather ElementAverage
Visibility16.2 mi
Wind DirectionWSW (248.8 °)

Weather ElementTotal
Precipitation---
Heating Degree Days20.9 (Base 65)
Averaged from 66 records on January 31, 2013
WEATHER CONDITIONS BREAKOUT
WIND DIRECTION BREAKOUT
WEATHER BY HOUR - JANUARY 31, 2013
[ °C ]   °F
Local TimeTemperatureDewpointHumidityBarometerVisibilityWind DirectionWind SpeedGust SpeedPrecipitationEventsConditions
12:20 AM44.6 °F37.4 °F76 %30.09 in1.3 miWSW (250°)13.8 mph
12:50 AM44.6 °F35.6 °F71 %30.09 in1.3 miWest (260°)16.1 mph
1:00 AM44.0 °F36.0 °F66 %30.14 in44.0 miWest (260°)15.7 mphClear
1:20 AM44.6 °F35.6 °F71 %30.12 in1.3 miWSW (250°)15.0 mph
1:50 AM42.8 °F33.8 °F70 %30.12 in1.3 miWSW (250°)13.8 mph
2:00 AM43.0 °F35.0 °F66 %30.17 in44.0 miWSW (240°)15.7 mph
2:20 AM41.0 °F35.6 °F81 %30.12 in1.3 miWSW (240°)13.8 mph
2:50 AM42.8 °F33.8 °F70 %30.12 in1.3 miWSW (250°)11.5 mph
3:00 AM42.0 °F35.0 °F69 %30.17 in44.0 miWSW (240°)11.2 mph
3:20 AM41.0 °F37.4 °F87 %30.12 in1.3 miWSW (250°)9.2 mph
3:50 AM42.8 °F39.2 °F87 %30.12 in1.3 miWSW (250°)12.7 mph
4:20 AM42.8 °F37.4 °F81 %30.12 in1.3 miWSW (250°)13.8 mph
4:50 AM42.8 °F35.6 °F76 %30.12 in1.3 miWSW (250°)15.0 mph
5:00 AM42.0 °F37.0 °F75 %30.16 in44.0 miWSW (240°)15.7 mph
5:20 AM42.8 °F37.4 °F81 %30.12 in1.3 miWSW (250°)12.7 mph
5:50 AM42.8 °F37.4 °F81 %30.15 in1.3 miWSW (250°)9.2 mph
6:00 AM42.0 °F37.0 °F75 %30.18 in31.0 miWSW (250°)11.2 mphPartly Cloudy
6:20 AM42.8 °F35.6 °F76 %30.15 in6.2 miWSW (250°)10.4 mphScattered Clouds
6:50 AM41.0 °F33.8 °F76 %30.15 in6.2 miWSW (250°)13.8 mphScattered Clouds
7:00 AM41.0 °F35.0 °F73 %30.18 in37.0 miWSW (240°)15.7 mphScattered Clouds
7:20 AM41.0 °F33.8 °F76 %30.15 inWSW (250°)16.1 mphClear
7:50 AM41.0 °F32.0 °F70 %30.15 inWSW (250°)11.5 mphClear
8:00 AM40.0 °F34.0 °F72 %30.19 in47.0 miWSW (240°)11.2 mphScattered Clouds
8:20 AM41.0 °F32.0 °F70 %30.15 inWSW (250°)13.8 mphClear
8:50 AM41.0 °F32.0 °F70 %30.15 inWSW (240°)15.0 mphClear
9:00 AM41.0 °F34.0 °F67 %30.20 in47.0 miWSW (240°)17.9 mphMostly Cloudy
9:20 AM41.0 °F32.0 °F70 %30.15 inWSW (250°)15.0 mphClear
9:50 AM42.8 °F32.0 °F66 %30.15 inWSW (250°)16.1 mphClear
10:20 AM42.8 °F32.0 °F66 %30.15 inWSW (250°)16.1 mph27.6 mphClear
10:50 AM44.6 °F33.8 °F66 %30.15 inWSW (250°)16.1 mphClear
11:00 AM45.0 °F36.0 °F61 %30.19 in25.0 miWSW (250°)17.9 mphScattered Clouds
11:20 AM46.4 °F33.8 °F62 %30.15 in6.2 miWSW (250°)18.4 mphPartly Cloudy
11:50 AM46.4 °F33.8 °F62 %30.12 in6.2 miWSW (250°)18.4 mphPartly Cloudy
12:00 PM46.0 °F35.0 °F55 %30.16 in25.0 miWSW (240°)20.1 mphScattered Clouds
12:50 PM48.2 °F33.8 °F58 %30.06 in6.2 miWSW (240°)20.7 mphPartly Cloudy
1:00 PM47.0 °F30.09 in25.0 miWSW (240°)13.4 mphScattered Clouds
1:20 PM46.4 °F33.8 °F62 %30.06 in6.2 miWSW (250°)19.6 mphPartly Cloudy
1:50 PM46.4 °F33.8 °F62 %30.04 in6.2 miWSW (250°)20.7 mphPartly Cloudy
2:00 PM46.0 °F36.0 °F57 %30.06 in31.0 miWSW (240°)22.4 mphScattered Clouds
2:20 PM46.4 °F33.8 °F62 %30.04 inWSW (250°)18.4 mphClear
2:50 PM46.4 °F33.8 °F62 %30.01 inWSW (240°)20.7 mphClear
3:00 PM47.0 °F36.0 °F54 %30.04 in37.0 miWSW (240°)20.1 mphMostly Cloudy
3:20 PM46.4 °F33.8 °F62 %29.98 inWSW (240°)19.6 mphClear
3:50 PM46.4 °F32.0 °F57 %29.98 inWSW (240°)18.4 mphClear
4:20 PM46.4 °F30.2 °F53 %29.95 inWSW (240°)24.2 mphClear
4:50 PM46.4 °F30.2 °F53 %29.95 inWSW (240°)25.3 mph40.3 mphClear
5:00 PM46.0 °F33.0 °F48 %29.97 in37.0 miSW (230°)24.6 mphPartly Cloudy
5:20 PM46.4 °F30.2 °F53 %29.95 inWSW (250°)21.9 mph38.0 mphClear
5:50 PM48.2 °F30.2 °F50 %29.95 inWSW (240°)24.2 mphClear
6:00 PM47.0 °F32.0 °F44 %29.98 in44.0 miWSW (240°)24.6 mphMostly Cloudy
6:20 PM48.2 °F30.2 °F50 %29.95 in6.2 miWSW (250°)19.6 mphScattered Clouds
6:50 PM48.2 °F30.2 °F50 %29.98 in6.2 miWSW (250°)21.9 mph33.4 mphScattered Clouds
7:00 PM48.0 °F33.0 °F43 %29.99 in44.0 miWSW (250°)24.6 mphMostly Cloudy
7:20 PM48.2 °F30.2 °F50 %29.98 in6.2 miWest (260°)20.7 mphMostly Cloudy
7:50 PM48.2 °F32.0 °F54 %29.95 in6.2 miWest (260°)23.0 mph34.5 mphMostly Cloudy
8:00 PM47.0 °F34.0 °F49 %30.00 in44.0 miWest (260°)22.4 mphRainLight Rain
8:20 PM46.4 °F33.8 °F62 %29.98 in6.2 miWest (260°)24.2 mph35.7 mphRainLight Rain
8:50 PM46.4 °F33.8 °F62 %29.98 in6.2 miWest (260°)21.9 mph33.4 mphScattered Clouds
9:00 PM47.0 °F36.0 °F54 %30.01 in44.0 miWSW (250°)22.4 mphRainLight Rain
9:20 PM46.4 °F33.8 °F62 %29.98 in6.2 miWest (260°)23.0 mphScattered Clouds
9:50 PM46.4 °F33.8 °F62 %29.98 in1.3 miWest (260°)20.7 mphRainLight Rain
10:20 PM44.6 °F35.6 °F71 %29.98 in1.3 miWSW (250°)18.4 mphLight Drizzle
10:50 PM42.8 °F41.0 °F93 %30.01 in1.3 miWest (260°)13.8 mphRainRain
11:00 PM42.0 °F39.0 °F87 %30.03 in9.0 miWest (260°)15.7 mphN Precipitation
11:20 PM42.8 °F39.2 °F87 %29.98 in1.3 miWest (270°)19.6 mph32.2 mph
11:50 PM42.8 °F39.2 °F87 %30.01 in1.3 miWest (260°)16.1 mph
Hourly data recorded from EDMA, located miles away from Augsburg, Germany







STORIES FROM OUR PARTNERS